Flag for Norway Weather past 2 weeks in Bardufoss, Norway

Now
-4 °F

Sunny.


Feels Like: -4 °F
Forecast: 4 / 10 °F
Wind: 1 mph from North

Location: Bardufoss

Current Time: Dec 19, 2014 at 8:19:32 AM

Latest Report: Dec 19, 2014 at 7:50 AM


Visibility: 10 mi

Pressure: 29.03 "Hg

Humidity: 77%

Dew point: -9 °F

Location of BardufossLocation

Historic Weather in Bardufoss — Graph

°F

Bardufoss temperature yesterday

Maximum temperature yesterday: 7 °F (at 12:50 AM)
Minimum temperature yesterday: -2 °F (at 10:50 AM)
Average temperature yesterday: 0 °F

Past Weeks' High & Low Weather Summary

 TemperatureHumidityPressure
High41 °F (Dec 5, 8:20 AM)100% (Dec 4, 5:50 PM)29.80 "Hg (Dec 4, 5:50 PM)
Low-4 °F (Dec 14, 12:50 AM)55% (Dec 10, 5:50 AM)28.88 "Hg (Dec 10, 6:20 PM)
Average19 °F85%29.21 "Hg
* Reported Dec 4 6:20 AM — Dec 19 6:50 AM, Bardufoss, Weather by CustomWeather, © 2014

Note: Actual official high and low records may vary slightly from our data, if they occured in-between our weather recording intervals... More about our weather records

Advertising

Bardufoss weather history for previous 24 hours

 ConditionsComfort  
Time TempWeatherWind HumidityBarometerVisibility
6:50 AM
Dec 19
-4 °FSunny.1 mph84%29.03 "Hg10 mi
6:20 AM-4 °FSunny.1 mph84%29.03 "Hg10 mi
5:50 AM-4 °FClear.1 mph84%29.03 "Hg10 mi
5:20 AM-4 °FClear.1 mph84%29.03 "Hg10 mi
4:50 AM-2 °FClear.1 mph84%29.03 "Hg10 mi
3:50 AM0 °FClear.2 mph84%29.06 "Hg10 mi
2:50 AM-2 °FClear.1 mph84%29.06 "Hg10 mi
1:50 AM0 °FClear.1 mph84%29.06 "Hg10 mi
12:50 AM0 °FSunny.1 mph78%29.09 "Hg10 mi
11:50 PM
Dec 18
0 °FClear.No wind84%29.09 "Hg10 mi
10:50 PM-2 °FClear.1 mph84%29.12 "Hg10 mi
9:50 PM-2 °FClear.1 mph84%29.12 "Hg10 mi
8:50 PM0 °FClear.1 mph84%29.12 "Hg10 mi
7:50 PM0 °FClear.2 mph84%29.15 "Hg10 mi
6:50 PM0 °FSunny.1 mph84%29.15 "Hg10 mi
6:20 PM1 °FSunny.2 mph85%29.15 "Hg10 mi
5:50 PM1 °FSunny.2 mph85%29.18 "Hg10 mi
5:20 PM3 °FPassing clouds.1 mph85%29.18 "HgN/A
4:50 PM0 °FPassing clouds.1 mph84%29.18 "HgN/A
4:20 PM0 °FPassing clouds.1 mph84%29.18 "HgN/A
3:50 PM-2 °FPassing clouds.1 mph84%29.21 "HgN/A
3:20 PM0 °FPassing clouds.2 mph92%29.21 "HgN/A
2:50 PM1 °FPassing clouds.1 mph85%29.21 "HgN/A
2:20 PM0 °FPassing clouds.2 mph92%29.21 "HgN/A
1:50 PM0 °FPassing clouds.1 mph84%29.21 "HgN/A
1:20 PM0 °FPassing clouds.1 mph84%29.21 "HgN/A
12:50 PM-2 °FPassing clouds.1 mph84%29.24 "HgN/A
12:20 PM-2 °FPassing clouds.1 mph84%29.24 "HgN/A
11:50 AM0 °FPassing clouds.2 mph84%29.24 "HgN/A
11:20 AM-2 °FPassing clouds.1 mph84%29.24 "HgN/A
10:50 AM-2 °FPassing clouds.1 mph84%29.27 "HgN/A
10:20 AM0 °FPassing clouds.1 mph84%29.27 "HgN/A
9:50 AM0 °FPassing clouds.1 mph84%29.27 "HgN/A
9:20 AM1 °FPassing clouds.1 mph85%29.27 "HgN/A
8:50 AM0 °FPassing clouds.1 mph84%29.27 "HgN/A
8:20 AM1 °FPassing clouds.No wind85%29.30 "HgN/A
Weather by CustomWeather, © 2014

See weather overviewHow to use our weather pages